Miscellaneous Local Product
Issued by NWS Hastings, NE

Home | Current Version | Previous Version | Graphics & Text | Print | Product List | Glossary On
Versions: 1 2 3 4 5 6 7 8 9 10 11 12 13 14 15 16 17 18 19 20 21 22 23 24 25 26 27 28 29 30 31 32 33 34 35 36 37 38 39 40 41 42 43 44 45 46 47 48 49 50
000
AXUS43 KGID 230802
MISGRI

GID CWA HOURLY WEATHER ROUNDUP
NATIONAL WEATHER SERVICE HASTINGS NE
300 AM CDT THU OCT 23 2014

NOTE: "FAIR" INDICATES FEW OR NO CLOUDS BELOW 12,000 FEET WITH NO
SIGNIFICANT WEATHER AND/OR OBSTRUCTIONS TO VISIBILITY.

...SOUTH CENTRAL NEBRASKA...

CITY           SKY/WX    TMP DP  RH WIND       PRES   REMARKS
GRAND ISLAND   FOG       50  48  93 CALM      30.06S VSB 1/4
HASTINGS       FOG       52  50  93 W3        30.06R VSB 1/4
KEARNEY        CLOUDY    50  48  93 W3        30.08S VSB<1/4
ORD            FOG       41  41 100 W3        30.06R VSB 1/4
YORK           CLOUDY    57  57 100 N3        30.05S FOG
AURORA         FOG       57  57 100 N3        30.06R VSB 1/4
LEXINGTON      FOG       50  49  98 CALM      30.08R VSB 1/4
HOLDREGE       FOG       49  48  97 CALM      30.07S VSB<1/4
HEBRON         CLEAR     58  55  89 SW7       30.04R

...NEBRASKA PANHANDLE...

CITY           SKY/WX    TMP DP  RH WIND       PRES   REMARKS
CHADRON        CLEAR     32  28  85 W6        30.05S WCI  26
ALLIANCE       PTCLDY    27  23  85 W10       30.10R WCI  17
SCOTTSBLUFF    PTCLDY    36  29  75 CALM      30.11R
SIDNEY         CLEAR     39  33  79 NW9       30.12R WCI  33

...WESTERN AND NORTH CENTRAL NEBRASKA...

CITY           SKY/WX    TMP DP  RH WIND       PRES   REMARKS
VALENTINE      CLEAR     38  36  92 W3        30.06R
AINSWORTH      CLEAR     41  39  92 SW5       30.05S
ONEILL         FOG       42  42 100 SW5       30.05S VSB 1/2
BROKEN BOW     FOG       42  41  96 CALM      30.07S VSB 1/2
IMPERIAL       CLEAR     42  32  67 W6        30.09S
NORTH PLATTE   FOG       44  43  96 CALM      30.08S VSB 1/4
MCCOOK         CLEAR     41  41 100 NW5       30.09R FOG

...EASTERN NEBRASKA...

CITY           SKY/WX    TMP DP  RH WIND       PRES   REMARKS
NORFOLK        FOG       49  48  97 CALM      30.04R VSB 1/4
SO SIOUX CITY  CLOUDY    57  56  96 NW7       30.03R
TEKAMAH        CLOUDY    62  60  93 S6        30.02R
COLUMBUS       CLEAR     52  48  87 W3        30.06R
ALBION         FOG       44  43  94 CALM      30.06R VSB 1/2
OMAHA EPPLEY   CLOUDY    63  59  87 S10       30.03R
OFFUTT AFB     CLOUDY    62  62 100 S6        30.03R
MILLARD        CLOUDY    62  60  92 CALM      30.03R
LINCOLN        CLOUDY    62  58  86 SW5       30.05
NEBRASKA CITY  CLOUDY    61  61 100 S13       30.04F FOG
BEATRICE       CLOUDY    60  58  94 S6        30.04R
FALLS CITY     CLOUDY    61  60  97 SE6       30.07R FOG

...NORTHERN KANSAS...

CITY           SKY/WX    TMP DP  RH WIND       PRES   REMARKS
GOODLAND       CLEAR     45  43  93 W5        30.12S
HILL CITY      MOCLDY    55  53  93 W6        30.06S
NORTON         FOG       48  46  93 CALM      30.07R VSB 1/4
PHILLIPSBURG   FOG       52  52 100 CALM      30.06S VSB 1/2
SMITH CENTER   FOG       50  48  93 CALM      30.06R VSB 1/4
BELOIT         CLOUDY    61  59  94 S3        30.04R
HAYS           CLOUDY    61  54  77 SW5       30.06S
RUSSELL        CLOUDY    61  58  90 S7        30.05S
CONCORDIA      CLOUDY    60  59  96 S6        30.05S
SALINA         CLOUDY    64  58  80 S6        30.07R
TOPEKA         RAIN      63  62  97 S8        30.10R FOG



USA.gov is the U.S. government's official web portal to all federal, state and local government web resources and services.